Tracking 19817 objects as of 19-Aug-2019
HD Live streaming from Space Station
objects crossing your sky now

LEMUR 2 LILLYJO

Track LEMUR 2 LILLYJO now!
10-day predictions
LEMUR 2 LILLYJO is classified as:


NORAD ID: 44396
Int'l Code: 2019-038L
Perigee: 519.2 km
Apogee: 556.2 km
Inclination: 97.5 °
Period: 95.2 minutes
Semi major axis: 6908 km
RCS: Unknown
Launch date: July 5, 2019
Source: United States (US)
Launch site: VOSTOCHNY COSMODROME (VOSTO)
aabbcc
Your satellite tracking list
Your tracking list is empty




NASA's NSSDC Master Catalog

Two Line Element Set (TLE):
1 44396U 19038L   19228.72648839 +.00000857 +00000-0 +53464-4 0  9992
2 44396 097.4905 189.8507 0026763 098.9451 261.4811 15.11855160006372
Source of the keplerian elements: AFSPC